Regional Weather Roundup
Issued by NWS

Home | Current Version | Previous Version | Text Only | Print | Product List | Glossary Off
Versions: 1 2 3 4 5 6 7 8 9 10 11 12 13 14 15 16 17 18 19 20 21 22 23 24 25 26 27 28 29 30 31 32 33 34 35 36 37 38 39 40 41 42 43 44 45 46 47 48 49 50

000
ASUS43 KMKX 201711
RWRWI

WISCONSIN REGIONAL WEATHER ROUNDUP
NATIONAL WEATHER SERVICE MILWAUKEE/SULLIVAN WI
1100 AM CST THU NOV 20 2014

NOTE: "FAIR" INDICATES FEW OR NO CLOUDS BELOW 12,000 FEET WITH NO
SIGNIFICANT WEATHER AND/OR OBSTRUCTIONS TO VISIBILITY.

WIZ001-002-006>008-014>016-023>028-201800-
NORTHWEST WISCONSIN

CITY           SKY/WX    TMP DP  RH WIND       PRES   REMARKS
SUPERIOR ARPT  SUNNY     12   0  58 NW15      30.05R WCI  -4
ASHLAND        LGT SNOW  11   3  70 W9        30.00R WCI  -2
HAYWARD        PTSUNNY    9  -1  64 VRB6G18   29.99R WCI  -1
SIREN          SUNNY     12  -1  55 NW13      30.06R WCI  -3
CUMBERLAND     SUNNY     10  -2  56 W13       30.03R WCI  -5
RICE LAKE      SUNNY     11  -1  57 W9        30.05R WCI  -1
CHETEK         SUNNY     12  -1  55 W8        30.04R WCI   0
LADYSMITH      MOSUNNY   11   0  61 W14G20    30.01R WCI  -4
EAU CLAIRE     SUNNY     12  -1  56 W14       30.07R WCI  -3
MENOMONIE      SUNNY     14  -1  52 W13G20    30.09R WCI  -1
NEW RICHMOND   SUNNY     12  -3  50 NW16      30.09R WCI  -4
OSCEOLA        SUNNY     13  -2  52 NW12G21   30.13R WCI  -1
$$

WIZ003>005-009-010-017-018-201800-
NORTH CENTRAL WISCONSIN

CITY           SKY/WX    TMP DP  RH WIND       PRES   REMARKS
MANITOWISH WTR PTSUNNY    8  -1  65 W16G24    29.88R WCI -10
ARBOR VITAE    PTSUNNY   11   2  65 NW9G18    29.88R WCI  -1
WOODRUFF       PTSUNNY   11   2  65 NW9G18    29.88R WCI  -1
RHINELANDER    SUNNY     10  -2  58 W14G25    29.88R WCI  -6
EAGLE RIVER    MOSUNNY   10  -1  58 W10G25    29.85R WCI  -3
LAND O LAKES   PTSUNNY   12   3  67 W10G18    29.84S HAZE    WCI  -1
PHILLIPS       CLOUDY     8  -1  64 W7        29.92S WCI  -3
TOMAHAWK       PTSUNNY   10  -1  62 W14G20    29.93R WCI  -6
MEDFORD        MOSUNNY   10   0  64 W13       29.94S WCI  -6
MERRILL        CLOUDY    10   1  64 W14       29.94R WCI  -5
$$

WIZ029-030-035-036-043>047-201800-
CENTRAL WISCONSIN

CITY           SKY/WX    TMP DP  RH WIND       PRES   REMARKS
WAUSAU         CLOUDY    11   1  64 W15       29.95R WCI  -5
MOSINEE        CLOUDY    10   1  67 W13G22    29.97R WCI  -5
MARSHFIELD     SUNNY     12   0  58 NW18G28   29.98R WCI  -6
STEVENS POINT  CLOUDY    11   0  60 W10G18    29.98S WCI  -3
WAUPACA        SUNNY     19   3  50 W14G21    29.99R WCI   5
WAUTOMA        PTSUNNY   16   3  56 NW16G24   30.01S WCI   1
WISC RAPIDS    MOSUNNY   13   0  56 NW17G25   30.02R WCI  -4
CAMP DOUGLAS   MOSUNNY   18   5  57 W18       30.04R WCI   2
$$

WIZ011>013-019>022-031-037>040-048>050-201800-
NORTHEAST WISCONSIN

CITY           SKY/WX    TMP DP  RH WIND       PRES   REMARKS
ANTIGO         MOSUNNY   10   0  64 W18       29.90R WCI  -9
SHAWANO        SUNNY     18   4  53 W15G21    29.96R WCI   4
OCONTO         SUNNY     18   5  55 W15       29.93S WCI   4
STURGEON BAY   SUNNY     18   3  53 W16G24    29.90S WCI   3
GREEN BAY      SUNNY     18   4  54 W21G26    29.96R WCI   1
MANITOWOC      SUNNY     20   6  55 W17       29.95R WCI   5
APPLETON       MOSUNNY   16   1  53 W18G24    29.96R WCI  -1
CLINTONVILLE   SUNNY     18   1  49 W17G24    29.96S WCI   2
OSHKOSH        SUNNY     18   5  57 W16G25    29.98R WCI   3
$$

WIZ032>034-041-042-053>061-201800-
SOUTHWEST WISCONSIN

CITY           SKY/WX    TMP DP  RH WIND       PRES   REMARKS
LA CROSSE      SUNNY     20   2  45 NW14      30.10R WCI   7
SPARTA         SUNNY     18   1  48 W14G20    30.07S WCI   4
VIROQUA        SUNNY     18   0  46 W20G28    30.04S WCI   2
BOSCOBEL       SUNNY     22   3  44 NW18G24   30.11R WCI   7
PRAIRIE DU CHI SUNNY     21   5  49 W13G21    30.13S WCI   9
PLATTEVILLE    SUNNY     21   7  55 W15G23    30.09S WCI   8
$$

WIZ056-057-062-063-064-067-068-201800-
SOUTH CENTRAL WISCONSIN

CITY           SKY/WX    TMP DP  RH WIND       PRES   REMARKS
REEDSBURG      SUNNY     19   4  50 W14       30.04S WCI   6
BARABOO/DELLS  SUNNY     19   4  51 W14G20    30.02S WCI   6
LONE ROCK      SUNNY     24   0  35 W23       30.07S WCI   9
MINERAL POINT  SUNNY     23   3  42 W22G29    30.04F WCI   8
MADISON        MOSUNNY   20   4  50 NW16G24   30.03S WCI   6
MIDDLETON      SUNNY     23   4  44 W14G22    30.04S WCI  11
WATERTOWN      MOSUNNY   20   7  58 W17       30.02R WCI   5
MONROE         SUNNY     23   5  46 W22G29    30.05S WCI   8
JANESVILLE     SUNNY     25   5  42 W17G25    30.05R WCI  11
$$

WIZ051-052-058>065-066-070>072-201800-
SOUTHEAST WISCONSIN

CITY           SKY/WX    TMP DP  RH WIND       PRES   REMARKS
MILWAUKEE      MOSUNNY   21   6  52 W14G28    30.01S WCI   8
WAUKESHA       PTSUNNY   18   7  62 NW12G25   30.01R WCI   5
MILWAUKEE/TIMM MOSUNNY   19   5  53 W20G29    30.01R WCI   4
RACINE         MOSUNNY   21   8  57 W13       30.03R WCI   9
BURLINGTON     SUNNY     20   7  57 W14G22    30.03R WCI   7
KENOSHA        SUNNY     23   8  52 W18G31    30.02R WCI   9
FOND DU LAC    SUNNY     18   5  57 W16G25    29.99R WCI   3
SHEBOYGAN      CLOUDY    17   7  64 NW14G23   29.97R WCI   3
WEST BEND      SUNNY     19   5  53 W16G22    29.98S WCI   5
JUNEAU         PTSUNNY   18   6  58 W9G20     30.01S WCI   7
$$

LSZ147-162-201800-
LAKE SUPERIOR

STATION/POSITION TIME  TEMP    WIND        PRES    WAVE
                       AIR SEA DIR/SP/G            HT/PER
                 (UTC) (F)     (DEG/KT/KT) (MB)    (FT/S)
DEVILS ISLAND    1700   10     310/ 20/ 28 1017.0R
PORT WING        1600   12     310/ 18/ 22 1016.3
SAXON HARBOR     1600   13     280/ 13/ 23 1014.6R
$$

LMZ867-665-643>646-201800-
LAKE MICHIGAN

STATION/POSITION TIME  TEMP    WIND        PRES    WAVE
                       AIR SEA DIR/SP/G            HT/PER
                 (UTC) (F)     (DEG/KT/KT) (MB)    (FT/S)
CHAMBERS ISLAND  1600   21     300/  8/ 15 1011.9S
N MID LAKE BUOY  1650   21 42  300/ 19/ 27 1011.8R   4/ 5
NORTHPORT PIER   1620   19     300/ 14/ 21 1011.9R
SISTER BAY       1528          310/ 24/ 29   N/A
ALGOMA LAKESHORE 1613          310/ 12/ 21   N/A
KEWAUNEE LAKESHO 1600   16     290/ 13/ 25 1012.4R
SHEBOYGAN LAKESH 1700   17 34  280/ 21/ 26 1016.2R
PORT WASHINGTON  1640   19     290/ 13/ 20 1016.3R
ATWATER BUOY     1600   23     270/ 19/ 23 1016.0R
MILWAUKEE LAKESH 1600   19     290/ 19/ 25   N/A
S MID LAKE BUOY  1650   24 43  280/ 23/ 27 1016.6R   7/ 6
KENOSHA   LAKESH 1700   22     290/ 16/ 26 1016.6S
$$

TC  - TEMPERATURE IN CELSIUS
VSB - VISIBILITY IN STATUTE MILES
WCI - WIND CHILL INDEX
HX  - HEAT INDEX




USA.gov is the U.S. government's official web portal to all federal, state and local government web resources and services.